Regional Weather Roundup
Issued by NWS

Home | Current Version | Previous Version | Text Only | Print | Product List | Glossary On
Versions: 1 2 3 4 5 6 7 8 9 10 11 12 13 14 15 16 17 18 19 20 21 22 23 24 25 26 27 28 29 30 31 32 33 34 35 36 37 38 39 40 41 42 43 44 45 46 47 48 49 50
831
ASUS44 KJAN 211410
RWRMS

MISSISSIPPI HOURLY WEATHER ROUNDUP
NATIONAL WEATHER SERVICE JACKSON MS
900 AM CDT THU AUG 21 2014

NOTE: "FAIR: INDICATES FEW OR NO CLOUDS BELOW 12,000 FEET WITH NO
SIGNIFICANT WEATHER AND/OR OBSTRUCTIONS TO VISIBILITY.

MSZ001>002-007>008-010>013-018>021-025>028-034>036-211500-
NORTHWEST MISSISSIPPI

CITY           SKY/WX    TMP DP  RH WIND       PRES   REMARKS
CLARKSDALE     FAIR      81  75  83 SW3       30.12F
CLEVELAND      FAIR      81  75  81 SW8       30.12S
GREENWOOD      SUNNY     81  74  79 SW6       30.13S
GREENVILLE     SUNNY     82  75  79 SW9       30.11F
GRENADA        FAIR      79  72  78 W6        30.13S
OLIVE BRANCH   MOSUNNY   81  79  94 SW10      30.12S
OXFORD         FAIR      81  73  78 W6        30.15R
TUNICA         SUNNY     81  73  78 SW8       30.11S
$$

MSZ003>006-009-014>017-022>024-029>033-037>039-211500-
NORTHEAST MISSISSIPPI

CITY           SKY/WX    TMP DP  RH WIND       PRES   REMARKS
BELMONT        FAIR      80  74  81 W5        30.14S
COLUMBUS AFB   SUNNY     82  72  71 W5        30.14R
CORINTH        FAIR      82  73  74 SW6       30.12S
GOLDN TRIANGLE SUNNY     82  72  69 W6        30.15R
STARKVILLE     FAIR      81  72  74 NW3       30.14S
TUPELO         SUNNY     83  72  69 W8        30.13S
$$

MSZ040-058-211500-
CENTRAL MISSISSIPPI

CITY           SKY/WX    TMP DP  RH WIND       PRES   REMARKS
JACKSON INTL   SUNNY     82  74  76 SW3       30.15S
JACKSON HAWKNS SUNNY     83  74  74 CALM      30.15F
MERIDIAN KEY   SUNNY     82  73  74 CALM      30.15S
MERIDIAN NAS   SUNNY     82  73  74 VRB3      30.15S
RAYMOND        FAIR      82  77  83 SW5       30.15S HX  91
VICKSBURG      MOSUNNY   83  75  77 S6        30.14R HX  90
$$

MSZ059>079-211500-
SOUTH MISSISSIPPI

CITY           SKY/WX    TMP DP  RH WIND       PRES   REMARKS
BROOKHAVEN     FAIR      82  75  78 S3        30.17S
HATTIESBURG    SUNNY     85  74  69 CALM      30.16S HX  92
MCCOMB         MOSUNNY   84  74  71 CALM      30.15S HX  91
NATCHEZ        CLOUDY    82  75  78 CALM      30.15S
PINE BELT      SUNNY     82  72  69 CALM      30.17S
$$

MSZ080>082-211500-
COASTAL MISSISSIPPI

CITY           SKY/WX    TMP DP  RH WIND       PRES   REMARKS
BAY ST LOUIS   MOSUNNY  N/A N/A N/A CALM      30.15S
BILOXI         SUNNY     86  78  75 VRB3      30.15R HX  98
PASCAGOULA     SUNNY     86  77  74 VRB6      30.15R HX  97
GULFPORT       SUNNY     85  77  77 CALM      30.14S HX  95
$$



USA.gov is the U.S. government's official web portal to all federal, state and local government web resources and services.